Temp
3 2 1 1 1 0 -0 -0 -0 -0 -0 -1 -1 -2 -3 -3 -3 -5 -5 -6 -7 -6 -6 -7 -7 -6 -7 -6 -6 -6 -6 -5 -4 -3 -3 -2 -1 -1 -0 0 0 1 0 1 1 2 2
3 2 2 1 1 0 -0 -0 -1 -0 -1 -1 -2 -3 -3 -3 -3 -4 -6 -6 -6 -7 -7 -7 -7 -7 -7 -7 -6 -6 -6 -5 -4 -3 -3 -2 -2 -2 -1 -0 0 0 0 1 1 1 2
3 2 2 1 1 0 -1 -1 -1 -1 -1 -1 -2 -3 -3 -4 -3 -4 -6 -6 -6 -7 -7 -7 -7 -7 -7 -7 -6 -6 -6 -5 -5 -4 -3 -3 -2 -2 -2 -1 -0 -0 0 0 1 1 1
4 3 2 2 1 0 -1 -1 -1 -1 -1 -1 -2 -2 -3 -4 -4 -4 -5 -6 -6 -7 -7 -7 -8 -7 -8 -7 -7 -7 -5 -5 -4 -4 -3 -3 -2 -2 -2 -1 -1 -1 -0 0 1 1 0
4 4 2 2 1 -0 -0 -1 -1 -2 -1 -1 -1 -2 -3 -4 -4 -4 -5 -6 -6 -7 -7 -8 -8 -7 -7 -7 -7 -6 -5 -4 -4 -3 -3 -2 -3 -2 -2 -1 -1 -1 -0 0 1 1 1
4 4 4 2 2 0 -0 -1 -2 -2 -2 -1 -2 -2 -3 -3 -4 -4 -4 -5 -6 -7 -7 -7 -7 -7 -7 -6 -6 -5 -5 -4 -4 -4 -4 -2 -3 -3 -2 -1 -1 -1 -1 -0 1 0 0
4 4 4 3 2 1 -0 -1 -1 -2 -2 -1 -1 -2 -3 -4 -4 -5 -4 -5 -6 -7 -6 -7 -7 -6 -7 -6 -6 -6 -5 -4 -4 -4 -3 -3 -3 -2 -2 -2 -1 -0 -1 -0 -0 0 0
4 4 4 4 3 1 0 -0 -1 -1 -2 -1 -1 -2 -2 -3 -4 -5 -5 -5 -5 -6 -6 -7 -6 -5 -5 -6 -5 -6 -5 -5 -3 -3 -3 -4 -4 -3 -2 -2 -1 -1 -1 -0 -0 -0 0
4 4 4 4 3 2 0 -0 -0 -1 -1 -1 -1 -1 -2 -2 -3 -4 -4 -5 -4 -5 -6 -6 -6 -6 -5 -5 -5 -5 -5 -5 -4 -3 -3 -3 -3 -3 -2 -2 -1 -1 -0 -0 -0 -0 0
4 4 4 3 3 2 1 -0 -0 -0 -1 -0 -1 -1 -1 -2 -2 -3 -3 -4 -4 -4 -5 -5 -5 -5 -5 -5 -5 -5 -5 -4 -4 -3 -3 -3 -3 -2 -2 -2 -1 -1 -1 -0 -0 0 -0
4 4 4 3 3 3 1 -0 -0 -0 -0 -0 -1 -1 -1 -2 -2 -2 -3 -3 -4 -4 -8 -5 -5 -5 -5 -3 -5 -4 -3 -2 -3 -3 -2 -3 -2 -2 -2 -2 -1 -1 -1 -1 -0 -0 -0
4 4 4 4 3 2 1 -0 -0 -0 -0 -0 -0 -1 -1 -1 -1 -2 -3 -3 -3 -4 -7 -4 -4 -4 -4 -3 -4 -4 -3 -3 -3 -3 -3 -3 -2 -2 -2 -2 -2 -1 -1 -1 -1 -0 -2
4 4 4 4 3 3 2 0 -0 -0 -0 -0 -0 -0 -1 -1 -1 -1 -2 -2 -3 -3 -4 -4 -5 -4 -4 -3 -3 -4 -3 -3 -3 -3 -3 -3 -3 -2 -2 -2 -2 -2 -1 -2 -2 -3 -4
4 4 4 4 3 3 2 1 0 -0 -0 0 -0 -0 -1 -1 -1 -1 -1 -2 -3 -3 -4 -4 -5 -5 -4 -4 -3 -3 -3 -3 -3 -2 -2 -2 -3 -3 -2 -2 -2 -2 -2 -1 -3 -4 -4
4 4 4 4 4 3 2 1 1 0 -0 0 -0 -0 -1 -1 -2 -1 -1 -2 -2 -3 -3 -3 -4 -4 -4 -3 -3 -3 -3 -3 -3 -2 -1 -3 -4 -3 -3 -2 -2 -2 -2 -1 -2 -3 -5
3 4 4 4 4 3 3 1 1 0 -0 0 -0 -1 -1 -2 -2 -2 -2 -2 -2 -2 -3 -3 -3 -3 -3 -4 -3 -2 -3 -3 -2 -1 -1 -2 -3 -3 -2 -2 -2 -2 -1 -2 -2 -5 -4
3 4 4 4 4 3 2 1 0 -0 -0 -0 -0 -1 -1 -2 -2 -1 -2 -2 -2 -3 -3 -3 -3 -3 -3 -3 -3 -3 -2 -2 -2 -2 -1 -1 -1 -4 -4 -3 -3 -3 -2 -2 -2 -2 -6
4 3 4 4 3 3 2 1 0 -0 -0 -0 -0 -1 -2 -2 -3 -2 -2 -3 -3 -3 -3 -3 -3 -3 -3 -3 -3 -2 -2 -2 -2 -2 -2 -2 -2 -4 -4 -3 -4 -3 -3 -2 -2 -3 -3
3 3 3 3 3 2 2 1 1 -0 -0 -0 -0 -1 -2 -2 -3 -3 -4 -3 -3 -3 -3 -3 -3 -3 -3 -3 -3 -3 -2 -2 -3 -2 -2 -2 -3 -4 -4 -4 -3 -3 -3 -3 -3 -3 -3
3 3 3 3 3 2 1 0 0 -0 -1 -0 -1 -1 -2 -3 -3 -4 -4 -3 -3 -3 -3 -4 -3 -3 -3 -3 -3 -3 -3 -3 -3 -3 -3 -3 -3 -2 -3 -2 -2 -3 -3 -2 -3 -3 -3
3 3 3 3 3 2 1 -0 -0 -1 -1 -1 -1 -2 -3 -2 -3 -4 -4 -4 -4 -4 -4 -4 -4 -3 -3 -3 -3 -2 -3 -3 -4 -4 -3 -3 -3 -2 -2 -2 -2 -2 -2 -2 -3 -2 -3
3 3 3 3 3 2 1 -1 -1 -1 -1 -2 -1 -2 -2 -3 -3 -4 -5 -5 -4 -5 -4 -4 -4 -4 -3 -3 -3 -3 -3 -3 -2 -2 -3 -3 -3 -3 -3 -2 -3 -2 -2 -2 -3 -2 -3
3 3 3 2 3 2 0 -1 -1 -2 -2 -2 -2 -2 -3 -3 -3 -4 -5 -5 -5 -5 -5 -4 -4 -4 -4 -4 -3 -3 -3 -3 -3 -3 -3 -4 -4 -4 -4 -3 -4 -4 -1 -2 -2 -1 -1
2 2 3 2 3 2 -0 -1 -2 -2 -2 -2 -2 -2 -3 -4 -4 -4 -5 -5 -5 -5 -4 -5 -5 -5 -4 -4 -4 -4 -3 -3 -4 -4 -4 -4 -4 -4 -4 -4 -7 -2 -2 -2 -2 -2 -2
2 2 3 2 2 1 -1 -2 -2 -2 -2 -2 -2 -2 -3 -3 -4 -5 -5 -5 -5 -5 -5 -5 -5 -5 -4 -5 -4 -4 -4 -4 -4 -4 -4 -4 -4 -4 -4 -5 -3 -2 -2 -2 -2 -2 -2
2 2 3 2 1 -0 -1 -2 -2 -2 -3 -3 -3 -3 -3 -4 -4 -5 -5 -5 -6 -5 -5 -5 -5 -5 -5 -5 -5 -4 -4 -4 -4 -5 -4 -4 -5 -5 -5 -5 -6 -3 -3 -3 -3 -2 -2
2 2 2 2 0 -1 -2 -2 -2 -3 -3 -3 -3 -3 -3 -4 -5 -5 -5 -6 -6 -6 -6 -5 -5 -5 -5 -5 -5 -5 -4 -4 -4 -4 -5 -5 -5 -5 -5 -5 -4 -3 -3 -3 -3 -3 -3
1 2 2 1 -1 -1 -1 -2 -2 -3 -3 -3 -3 -3 -3 -4 -5 -6 -6 -6 -6 -6 -6 -6 -6 -5 -5 -5 -5 -5 -4 -4 -4 -4 -4 -4 -5 -5 -5 -5 -5 -3 -3 -3 -3 -3 -3
1 2 1 0 -1 -1 -2 -2 -2 -2 -3 -3 -4 -4 -4 -5 -6 -6 -6 -6 -7 -7 -6 -6 -6 -6 -6 -5 -5 -5 -5 -4 -4 -4 -4 -4 -4 -4 -4 -3 -3 -3 -3 -4 -4 -4 -3
Height
3120 3115 3110 3105 3100 3095 3090 3087 3083 3078 3072 3065 3059 3054 3049 3043 3036 3031 3026 3024 3022 3020 3018 3016 3014 3013 3013 3014 3017 3019 3022 3025 3030 3039 3048 3056 3060 3068 3074 3081 3088 3093 3097 3104 3109 3116 3123
3118 3114 3108 3104 3099 3094 3089 3085 3081 3075 3069 3064 3058 3052 3047 3041 3035 3030 3026 3024 3022 3020 3017 3015 3013 3012 3012 3013 3013 3016 3019 3024 3029 3037 3047 3053 3059 3069 3074 3079 3086 3090 3096 3102 3106 3112 3118
3116 3112 3107 3102 3097 3093 3088 3083 3078 3073 3068 3063 3057 3050 3045 3041 3035 3030 3026 3023 3021 3018 3016 3014 3012 3011 3010 3010 3010 3012 3016 3020 3029 3036 3045 3053 3062 3068 3072 3079 3086 3090 3096 3102 3104 3109 3113
3115 3110 3105 3101 3096 3092 3086 3081 3077 3073 3067 3060 3055 3049 3045 3041 3036 3030 3026 3022 3020 3017 3015 3013 3011 3010 3008 3007 3009 3009 3012 3017 3028 3039 3046 3055 3062 3067 3074 3078 3085 3091 3095 3098 3100 3105 3110
3113 3108 3104 3099 3094 3089 3085 3080 3075 3070 3065 3059 3055 3048 3044 3040 3036 3031 3027 3023 3020 3018 3015 3013 3012 3010 3009 3007 3007 3006 3008 3016 3027 3038 3047 3053 3060 3067 3072 3077 3084 3087 3088 3092 3098 3102 3105
3112 3107 3102 3098 3093 3087 3083 3078 3073 3067 3063 3058 3052 3047 3043 3040 3037 3032 3029 3025 3021 3019 3015 3014 3012 3013 3012 3008 3006 3003 3008 3017 3026 3036 3045 3050 3058 3064 3069 3074 3071 3079 3086 3091 3095 3099 3100
3110 3105 3100 3096 3092 3086 3081 3076 3072 3065 3061 3057 3051 3047 3042 3039 3037 3033 3030 3027 3026 3022 3017 3016 3015 3013 3012 3010 3009 3008 3014 3020 3029 3037 3039 3047 3054 3056 3066 3073 3077 3082 3088 3093 3098 3100 3101
3107 3104 3099 3095 3090 3084 3079 3075 3070 3065 3060 3055 3050 3047 3041 3037 3035 3033 3030 3029 3026 3025 3021 3019 3017 3017 3016 3015 3013 3015 3019 3026 3032 3034 3040 3048 3053 3061 3068 3075 3080 3083 3087 3093 3098 3101 3104
3106 3101 3098 3093 3088 3083 3077 3074 3068 3063 3057 3053 3049 3045 3041 3037 3034 3032 3029 3027 3026 3025 3023 3021 3020 3018 3019 3018 3018 3020 3024 3027 3028 3038 3042 3047 3056 3063 3070 3075 3080 3083 3086 3091 3097 3100 3102
3104 3099 3096 3090 3085 3081 3076 3071 3066 3061 3056 3051 3047 3043 3040 3037 3035 3031 3029 3026 3027 3026 3025 3026 3022 3023 3022 3020 3022 3024 3027 3032 3033 3038 3046 3054 3059 3065 3071 3076 3081 3083 3086 3091 3095 3099 3100
3101 3097 3094 3088 3083 3079 3075 3069 3064 3059 3054 3050 3045 3042 3039 3035 3033 3031 3030 3027 3026 3027 3029 3029 3025 3024 3022 3024 3027 3029 3031 3035 3039 3041 3047 3053 3058 3065 3071 3076 3080 3084 3086 3090 3093 3095 3096
3098 3094 3091 3086 3081 3076 3072 3067 3062 3057 3052 3047 3044 3040 3039 3035 3033 3031 3029 3027 3026 3028 3030 3030 3028 3027 3027 3029 3032 3034 3035 3036 3039 3044 3051 3054 3059 3067 3071 3075 3080 3083 3087 3090 3092 3094 3095
3095 3092 3088 3084 3079 3074 3069 3064 3060 3055 3049 3045 3041 3039 3038 3035 3033 3032 3030 3028 3028 3024 3030 3032 3030 3029 3029 3031 3032 3033 3036 3036 3039 3043 3049 3056 3062 3065 3071 3076 3080 3083 3086 3090 3094 3095 3093
3091 3089 3084 3081 3075 3071 3066 3062 3057 3052 3048 3044 3040 3039 3037 3035 3034 3032 3032 3032 3029 3027 3027 3029 3030 3031 3033 3034 3034 3035 3037 3038 3042 3042 3045 3056 3065 3065 3067 3072 3076 3081 3085 3086 3091 3092 3088
3088 3086 3082 3078 3072 3068 3063 3059 3054 3050 3046 3043 3038 3038 3036 3035 3034 3033 3033 3032 3032 3030 3030 3031 3032 3035 3036 3036 3038 3037 3038 3039 3044 3046 3049 3055 3059 3063 3067 3072 3077 3079 3082 3086 3087 3088 3088
3084 3082 3079 3075 3069 3065 3061 3056 3052 3049 3045 3042 3039 3036 3034 3033 3032 3032 3033 3033 3032 3032 3033 3033 3034 3035 3036 3037 3038 3037 3039 3041 3045 3048 3049 3052 3058 3062 3066 3070 3073 3075 3082 3084 3086 3090 3086
3081 3077 3075 3071 3066 3062 3058 3054 3050 3048 3044 3041 3038 3035 3034 3032 3031 3030 3030 3029 3030 3033 3034 3035 3034 3035 3036 3037 3039 3040 3041 3044 3045 3047 3049 3053 3055 3063 3065 3066 3069 3073 3075 3078 3082 3081 3080
3077 3073 3071 3068 3063 3059 3055 3051 3049 3046 3042 3040 3038 3034 3032 3030 3031 3029 3028 3030 3033 3034 3036 3035 3035 3035 3036 3038 3039 3040 3042 3042 3044 3047 3049 3051 3053 3058 3063 3066 3067 3069 3073 3076 3078 3077 3076
3072 3069 3066 3065 3060 3056 3052 3049 3047 3044 3040 3038 3035 3032 3030 3029 3029 3028 3028 3028 3030 3032 3033 3034 3036 3036 3037 3038 3041 3041 3041 3043 3043 3045 3047 3051 3053 3058 3062 3066 3064 3064 3066 3070 3073 3073 3070
3067 3064 3062 3060 3058 3053 3049 3047 3044 3041 3037 3035 3033 3030 3028 3028 3027 3028 3028 3028 3029 3032 3034 3035 3035 3037 3038 3038 3040 3041 3041 3042 3043 3045 3047 3050 3052 3054 3056 3056 3058 3059 3060 3063 3066 3066 3064
3061 3059 3057 3056 3055 3050 3046 3043 3042 3038 3034 3033 3030 3028 3026 3026 3026 3027 3028 3028 3030 3032 3034 3037 3038 3037 3039 3039 3040 3040 3041 3042 3043 3045 3048 3050 3051 3053 3054 3055 3055 3055 3056 3057 3058 3057 3057
3055 3055 3053 3052 3051 3048 3044 3040 3038 3035 3033 3031 3029 3027 3024 3023 3023 3025 3025 3027 3028 3030 3031 3034 3035 3036 3037 3039 3040 3040 3042 3042 3043 3045 3046 3049 3050 3052 3053 3053 3053 3052 3052 3052 3051 3051 3051
3049 3050 3049 3047 3046 3044 3041 3038 3036 3032 3030 3028 3026 3025 3022 3022 3021 3023 3023 3024 3025 3027 3028 3028 3031 3034 3036 3037 3038 3039 3041 3042 3044 3044 3046 3048 3050 3052 3052 3052 3051 3048 3042 3042 3043 3044 3045
3043 3045 3045 3044 3042 3040 3038 3036 3034 3030 3029 3028 3025 3023 3021 3020 3019 3020 3021 3023 3024 3026 3027 3027 3027 3031 3034 3035 3037 3038 3040 3041 3042 3043 3045 3046 3048 3049 3048 3049 3048 3038 3037 3038 3038 3039 3039
3037 3040 3041 3039 3037 3036 3035 3033 3031 3029 3027 3025 3024 3023 3020 3018 3018 3018 3019 3021 3022 3024 3027 3028 3027 3029 3032 3033 3035 3036 3037 3039 3039 3041 3042 3044 3044 3044 3044 3043 3038 3035 3034 3036 3036 3037 3035
3032 3034 3036 3035 3034 3033 3031 3030 3028 3027 3025 3024 3022 3020 3018 3016 3016 3015 3016 3018 3019 3020 3023 3025 3027 3026 3030 3032 3033 3033 3034 3035 3036 3037 3038 3040 3041 3043 3042 3043 3039 3035 3034 3033 3033 3033 3033
3027 3030 3031 3031 3030 3030 3029 3028 3026 3025 3023 3022 3020 3017 3016 3013 3012 3013 3012 3014 3014 3015 3017 3021 3022 3026 3026 3029 3031 3031 3032 3033 3034 3035 3036 3037 3038 3039 3040 3039 3034 3033 3033 3032 3033 3036 3030
3022 3025 3026 3027 3027 3027 3026 3025 3024 3023 3021 3020 3016 3014 3013 3009 3008 3008 3009 3010 3011 3011 3014 3017 3022 3021 3023 3026 3029 3029 3029 3030 3031 3033 3033 3034 3035 3035 3037 3037 3032 3031 3031 3032 3032 3030 3028
3017 3020 3022 3022 3023 3024 3024 3023 3021 3020 3018 3016 3013 3010 3008 3006 3006 3005 3006 3008 3009 3010 3012 3014 3018 3018 3019 3023 3025 3027 3028 3027 3028 3029 3030 3033 3032 3032 3034 3031 3030 3030 3030 3030 3028 3027 3025
Wind_Speed
27 31 31 30 27 23 22 22 21 23 26 28 30 27 25 26 27 21 14 9 5 7 9 9 9 7 6 10 13 10 19 37 28 41 35 30 34 35 37 38 38 39 36 37 38 38 39
27 30 31 30 27 23 23 24 23 23 25 27 29 26 23 24 25 21 13 9 7 8 12 11 10 8 6 9 14 17 15 39 28 43 35 33 33 29 30 33 34 34 33 31 32 40 46
26 29 30 31 28 24 23 23 22 23 24 26 27 26 21 21 22 19 15 12 11 10 12 13 8 9 8 11 13 17 23 37 31 48 34 32 30 31 28 25 28 21 28 30 32 27 31
26 28 29 30 28 24 23 21 23 24 24 25 25 26 21 20 20 19 15 13 12 11 11 10 6 8 9 10 9 15 24 36 32 45 36 30 31 29 22 21 25 16 19 22 21 27 30
26 26 28 29 28 24 25 24 23 24 24 26 25 25 22 19 15 18 15 12 10 8 8 7 6 5 6 7 10 9 20 38 34 45 34 30 33 27 23 23 28 23 21 27 21 23 20
25 25 26 27 28 25 25 26 23 23 23 24 24 22 22 17 14 15 17 11 11 9 11 5 7 4 7 10 2 7 27 38 42 46 37 33 38 28 27 30 37 27 18 26 23 29 27
24 24 24 26 27 27 24 25 25 23 21 23 25 21 21 16 14 9 14 13 14 17 16 12 11 9 11 12 4 19 21 32 38 41 35 38 41 38 33 31 21 31 27 22 18 16 30
23 24 23 24 26 26 25 25 27 26 23 22 25 21 20 16 12 9 9 9 11 13 13 15 11 9 9 10 10 16 25 34 29 41 24 38 35 33 32 29 10 16 22 18 22 11 19
21 23 22 23 24 26 25 26 26 27 24 21 21 20 19 18 11 9 8 6 5 7 9 13 12 9 7 9 8 10 21 29 22 24 32 34 30 32 27 26 15 14 19 20 17 18 17
20 21 22 22 24 25 27 28 26 24 24 23 18 20 17 17 12 8 5 6 2 4 4 13 6 5 9 10 10 15 18 25 20 18 22 21 22 31 24 20 22 10 14 16 14 15 17
20 19 20 22 24 26 26 28 28 25 24 23 17 19 15 16 13 8 6 5 4 1 3 7 9 10 15 13 17 18 24 18 29 15 21 14 21 29 25 21 20 10 9 13 13 10 12
20 18 19 21 23 25 26 26 27 25 24 23 17 15 14 14 13 9 7 4 5 1 1 4 3 10 9 13 12 4 9 12 23 20 18 20 23 25 27 21 14 12 12 8 6 12 5
21 19 18 21 22 24 26 26 26 24 21 22 16 12 13 11 11 10 8 6 3 3 4 5 2 6 4 6 9 12 19 22 14 16 25 22 21 25 26 24 21 11 13 4 1 1 4
22 20 18 21 22 23 25 25 25 22 20 21 16 12 12 10 10 9 8 7 2 2 5 9 11 10 7 8 11 6 8 21 19 15 30 15 12 24 24 27 24 20 15 5 5 3 4
22 20 19 21 23 24 23 24 24 20 18 20 16 11 10 11 10 9 7 3 1 6 10 12 13 8 7 6 6 7 7 22 26 27 7 11 9 22 17 26 22 22 19 15 2 0 0
22 20 19 21 23 23 21 21 21 19 18 19 15 12 11 9 10 9 4 1 3 7 9 9 3 4 4 6 5 9 9 20 18 20 10 12 9 23 20 25 26 17 25 13 9 2 4
21 19 19 20 22 22 20 19 19 17 18 18 14 11 8 9 9 8 3 3 7 10 7 4 2 3 4 6 5 7 9 14 16 19 13 8 6 13 24 19 20 23 20 15 14 11 3
21 20 19 20 22 21 18 17 17 16 15 17 16 11 10 9 8 7 4 5 8 9 7 5 4 3 9 5 4 3 3 3 18 14 16 12 8 7 19 17 20 24 22 24 16 7 11
20 20 19 20 21 20 17 15 15 14 14 16 14 13 10 7 6 6 5 8 8 7 7 6 5 5 6 8 3 4 4 4 9 14 12 14 5 8 4 14 19 22 29 30 29 23 19
21 19 19 19 20 17 16 14 14 15 14 15 13 9 9 7 9 8 4 8 7 5 4 4 7 8 7 8 3 4 4 5 8 11 14 14 8 6 10 3 10 21 28 29 30 23 29
21 20 19 20 20 16 15 14 16 16 13 13 11 9 8 6 8 8 7 5 5 4 3 3 3 7 11 10 12 10 6 6 8 11 19 11 8 8 9 11 12 13 15 25 35 40 30
22 21 19 18 19 16 15 15 17 11 11 12 9 8 8 7 8 9 8 6 4 4 6 6 4 4 7 10 8 5 11 10 9 13 12 11 6 9 11 13 16 20 20 20 23 26 37
21 21 19 17 18 15 15 16 13 11 12 11 9 6 5 5 7 10 11 11 8 6 4 4 7 7 7 8 6 8 6 7 7 11 17 16 14 10 7 10 11 16 24 28 29 29 28
20 21 19 17 17 15 15 13 12 12 12 10 8 5 5 4 6 9 11 10 9 9 9 6 4 6 7 9 7 6 6 7 7 8 12 13 16 12 5 4 2 5 6 9 14 15 16
20 20 19 17 16 14 13 11 9 10 10 10 8 6 5 5 3 7 11 13 14 11 11 10 6 6 7 10 9 6 6 8 12 11 10 10 11 6 4 5 15 16 5 4 8 8 9
20 20 19 18 13 12 11 10 9 10 10 9 9 8 8 8 4 6 9 11 14 17 15 15 11 8 9 8 8 6 4 3 3 4 13 12 12 11 6 3 4 2 3 6 8 3 6
21 20 19 18 11 10 8 8 8 9 10 10 10 9 9 9 6 6 8 10 10 13 16 16 14 11 11 12 8 4 3 4 4 4 6 14 15 16 13 6 9 7 9 6 2 5 14
22 21 20 15 9 7 5 6 7 9 12 14 15 14 12 13 10 6 7 10 11 14 13 15 12 16 14 12 10 9 5 6 6 7 6 6 9 9 11 7 7 3 3 3 5 11 11
25 22 17 11 8 5 3 6 9 11 12 14 14 12 10 7 7 6 7 8 9 10 12 14 14 11 14 12 13 8 9 5 7 4 10 8 9 4 8 3 2 2 8 10 13 13 14
Wind_Direction
347 348 351 357 357 353 346 338 336 332 334 342 349 349 349 355 353 350 350 359 355 353 353 359 345 333 271 236 225 209 209 198 198 184 188 188 194 192 199 203 206 211 221 227 227 222 225
346 346 349 355 356 351 348 346 344 340 335 343 351 349 351 357 357 350 344 331 316 313 325 335 335 318 284 237 222 222 215 201 191 184 187 184 194 186 198 204 206 211 210 215 226 221 222
343 345 347 351 354 352 347 349 344 345 346 342 348 351 350 357 2 355 345 328 310 302 305 316 323 306 288 241 221 212 220 201 194 187 182 189 187 186 195 199 204 215 219 222 229 227 225
343 346 346 349 351 352 347 344 345 351 346 342 347 351 351 355 3 2 354 337 320 313 314 318 320 316 291 274 259 238 206 194 190 183 184 186 184 180 182 195 190 196 196 203 217 209 226
341 343 346 346 350 348 348 345 339 342 347 343 345 349 352 349 359 10 2 357 342 337 349 349 350 331 324 336 303 208 172 178 185 180 175 180 179 181 185 186 178 187 192 202 206 209 226
339 342 346 345 347 345 347 346 341 338 343 342 339 348 352 347 355 10 13 13 17 11 21 27 26 21 20 356 315 189 154 170 183 177 169 184 170 180 183 185 189 186 194 191 199 201 215
339 339 344 344 344 341 343 343 344 341 336 338 338 345 351 347 351 355 19 30 44 46 56 58 53 55 31 15 29 160 146 163 178 190 172 171 175 187 187 191 208 205 202 207 205 222 209
338 336 340 343 343 340 340 344 340 335 335 335 336 342 345 350 345 347 340 2 36 44 59 49 56 55 55 50 50 142 164 160 165 180 178 165 183 185 188 186 158 181 201 214 217 199 217
336 333 336 340 339 337 339 340 342 337 337 330 333 337 340 347 347 350 345 311 353 26 50 49 47 63 64 70 90 123 166 175 176 158 164 167 184 185 185 188 183 186 203 205 212 205 216
334 331 331 336 334 336 336 339 341 338 336 336 330 330 337 346 346 349 349 317 294 5 36 33 45 47 76 93 121 146 163 178 186 172 152 173 181 183 174 184 193 196 198 214 221 207 214
330 330 325 332 331 334 335 336 339 338 337 336 334 326 333 345 347 340 341 327 345 32 40 1 53 83 57 91 121 153 162 179 197 161 172 175 185 179 177 180 189 195 184 194 203 193 206
325 328 320 327 331 330 330 332 336 336 333 335 335 321 332 346 352 343 333 322 336 41 26 42 131 90 80 125 154 234 165 161 196 190 168 164 175 179 183 178 177 179 167 162 181 215 260
322 324 319 324 330 327 328 330 333 336 330 334 334 320 326 340 348 358 3 343 319 63 110 85 142 171 119 107 84 130 146 151 157 157 157 155 171 184 191 186 196 187 173 86 95 206 221
319 320 318 322 328 330 328 330 329 332 331 334 333 327 322 328 337 337 338 341 341 83 122 121 111 115 118 115 120 104 128 137 151 155 141 155 162 184 192 197 200 203 188 173 186 199 241
314 317 317 323 329 331 329 332 329 328 331 333 329 325 314 314 327 332 331 326 8 117 129 125 113 120 130 159 167 130 147 111 144 147 136 159 162 183 190 204 206 203 206 219 83 230 345
307 315 314 323 327 329 330 331 330 328 331 329 330 325 314 307 321 329 331 335 180 167 158 155 123 150 183 186 161 151 135 151 151 161 158 163 139 185 194 200 208 209 209 204 202 183 252
302 310 309 320 324 328 329 329 330 326 326 329 330 327 311 308 309 313 288 243 185 180 187 227 207 142 157 158 184 156 185 176 189 195 202 170 167 184 198 205 202 203 201 205 207 234 187
298 304 303 317 319 325 324 328 327 324 323 317 323 317 318 297 290 297 262 184 180 190 208 229 213 177 152 156 159 135 172 210 204 205 212 208 192 156 205 221 215 221 221 225 222 225 234
292 296 299 310 316 319 323 326 321 321 323 315 315 312 301 292 271 288 230 182 195 215 227 226 200 192 176 174 161 205 188 189 204 209 196 186 166 133 182 233 238 229 226 228 228 239 248
282 289 292 307 312 313 321 325 316 320 320 312 314 307 305 282 266 266 232 206 203 208 214 239 211 210 209 201 213 205 202 214 188 190 197 190 191 195 189 162 215 221 229 232 228 234 249
280 285 284 299 308 308 319 316 314 317 318 307 309 304 296 283 272 252 220 218 233 240 256 258 271 235 221 215 229 248 247 221 197 183 208 192 211 233 247 252 265 265 255 244 234 244 235
270 276 277 294 301 307 313 312 314 319 320 319 303 309 296 285 269 255 245 220 239 261 247 257 254 254 229 218 208 211 228 236 220 217 210 209 225 249 261 261 259 260 256 248 248 252 251
263 270 274 287 293 301 305 312 312 320 319 319 321 338 307 300 268 243 240 225 233 243 254 253 254 234 232 212 219 218 201 187 222 231 227 218 224 235 242 240 255 264 263 252 255 262 265
256 264 269 283 287 297 302 310 319 322 320 321 314 329 331 320 277 250 245 224 239 251 234 247 242 207 208 198 200 208 204 214 224 220 219 227 232 231 247 265 256 231 256 260 266 270 274
249 257 264 273 277 294 300 314 329 328 320 319 322 327 343 327 304 261 247 232 236 244 248 246 249 220 219 198 210 216 229 242 240 232 227 230 234 226 242 226 280 282 289 266 262 297 294
245 246 258 265 272 285 300 315 335 327 325 322 317 324 324 314 287 266 256 245 239 238 240 248 245 222 221 212 217 220 207 198 197 209 211 218 222 222 197 239 252 212 345 323 320 258 343
237 240 251 256 262 278 302 327 341 339 338 329 322 321 315 304 284 251 252 247 239 241 237 240 233 223 218 232 227 200 210 204 204 197 214 221 233 231 229 241 274 285 292 291 306 324 331
231 233 242 244 249 269 304 331 343 340 328 327 324 319 308 291 291 270 247 250 241 237 230 223 218 221 219 208 222 228 230 216 227 227 232 233 211 223 227 232 270 29 30 346 327 333 327
222 223 227 226 230 245 296 333 337 336 331 335 336 335 322 308 291 273 265 261 249 242 237 228 216 213 214 210 211 208 220 214 233 248 237 234 222 226 219 271 233 303 324 327 318 310 304